Location: American Medical Response
(33.3472°N, 96.5511°W)
Time: 15:23:12
(UTC+00:00)

SJ 16-02 - Pass Details

Date: 04 July 2022
Orbit: 604 x 615 km, 75.0° (Epoch: 14 August)

Event Time Altitude Azimuth Distance (km) Brightness Sun altitude
Rises 06:45:26 0° 341° (NNW) 2,888 5.7 -33.7°
Reaches altitude 10° 06:47:42 10° 338° (NNW) 1,979 4.6 -33.6°
Enters shadow 06:49:08 20° 334° (NNW) 1,425 3.7 -33.6°
